Time,TemperatureF,DewpointF,PressureIn,WindDirection,WindDirectionDegrees,WindSpeedMPH,WindSpeedGustMPH,Humidity,HourlyPrecipIn,Conditions,Clouds,dailyrainin,SoftwareType,DateUTC
2013-05-06 00:01:00,61.7,61.1,30.00,ESE,112,5.8,5.8,98,0.00,RA,,0.00,WeatherDisplay:10.37,2013-05-06 04:01:00,
2013-05-06 00:06:00,61.7,61.1,30.00,East,90,4.6,4.6,98,0.00,RA,,0.00,WeatherDisplay:10.37,2013-05-06 04:06:00,
2013-05-06 00:11:00,61.5,60.9,30.00,East,90,5.8,5.8,98,0.00,CLR,,0.00,WeatherDisplay:10.37,2013-05-06 04:11:00,
2013-05-06 00:16:00,61.3,60.7,29.99,East,90,3.5,3.5,98,0.00,CLR,,0.00,WeatherDisplay:10.37,2013-05-06 04:16:00,
2013-05-06 00:21:00,61.3,60.7,29.99,NNE,22,3.5,3.5,98,0.00,CLR,,0.00,WeatherDisplay:10.37,2013-05-06 04:21:00,
2013-05-06 00:26:00,61.3,60.7,29.99,East,90,3.5,3.5,98,0.00,CLR,,0.00,WeatherDisplay:10.37,2013-05-06 04:26:00,
2013-05-06 00:31:00,61.3,60.7,30.00,East,90,3.5,3.5,98,0.00,CLR,,0.00,WeatherDisplay:10.37,2013-05-06 04:31:00,
2013-05-06 00:36:00,61.7,61.1,30.00,SE,135,2.3,2.3,98,0.00,CLR,,0.00,WeatherDisplay:10.37,2013-05-06 04:36:00,
2013-05-06 00:41:00,61.9,61.3,30.01,ENE,68,3.5,3.5,98,0.03,RA,,0.04,WeatherDisplay:10.37,2013-05-06 04:41:00,
2013-05-06 00:46:00,61.9,61.3,30.01,East,90,5.8,5.8,98,0.06,RA,,0.06,WeatherDisplay:10.37,2013-05-06 04:46:00,
2013-05-06 00:51:00,61.9,61.3,29.99,NE,45,2.3,2.3,98,0.06,RA,,0.06,WeatherDisplay:10.37,2013-05-06 04:51:00,
2013-05-06 00:56:00,61.9,61.3,29.99,NE,45,0.0,0.0,98,0.06,,,0.06,WeatherDisplay:10.37,2013-05-06 04:56:00,
2013-05-06 01:01:00,61.9,61.3,29.99,North,360,0.0,0.0,98,0.06,CLR,,0.06,WeatherDisplay:10.37,2013-05-06 05:01:00,
2013-05-06 01:06:00,61.9,61.3,29.99,North,360,0.0,0.0,98,0.06,CLR,,0.06,WeatherDisplay:10.37,2013-05-06 05:06:00,
2013-05-06 01:11:00,61.9,61.3,29.82,ENE,67,0.0,-999.0,98,-99.99,,,0.06,Acu-Link.com,2013-05-06 05:11:00,
2013-05-06 01:16:00,62.4,61.8,29.98,ESE,112,5.8,5.8,98,0.06,CLR,,0.06,WeatherDisplay:10.37,2013-05-06 05:16:00,
2013-05-06 01:21:00,62.6,62.0,29.98,SE,135,8.1,8.1,98,0.06,CLR,,0.06,WeatherDisplay:10.37,2013-05-06 05:21:00,
2013-05-06 01:26:00,62.6,62.0,29.98,ESE,112,3.5,3.5,98,0.06,CLR,,0.06,WeatherDisplay:10.37,2013-05-06 05:26:00,
2013-05-06 01:31:00,62.6,62.0,29.98,ESE,112,4.6,4.6,98,0.06,CLR,,0.06,WeatherDisplay:10.37,2013-05-06 05:31:00,
2013-05-06 01:36:00,62.6,62.0,29.98,ENE,68,5.8,5.8,98,0.06,CLR,,0.06,WeatherDisplay:10.37,2013-05-06 05:36:00,
2013-05-06 01:41:00,63.0,62.4,29.98,ESE,112,6.3,6.3,98,0.03,CLR,,0.06,WeatherDisplay:10.37,2013-05-06 05:41:00,
2013-05-06 01:46:00,63.0,62.4,29.98,ESE,112,6.3,6.3,98,0.00,CLR,,0.06,WeatherDisplay:10.37,2013-05-06 05:46:00,
2013-05-06 01:51:00,63.1,62.5,29.98,NE,45,7.9,7.9,98,0.00,CLR,,0.06,WeatherDisplay:10.37,2013-05-06 05:51:00,
2013-05-06 01:56:00,63.3,62.7,29.98,ENE,68,3.5,3.5,98,0.00,CLR,,0.06,WeatherDisplay:10.37,2013-05-06 05:56:00,
2013-05-06 02:01:00,63.5,62.9,29.98,East,90,3.5,3.5,98,0.00,CLR,,0.06,WeatherDisplay:10.37,2013-05-06 06:01:00,
2013-05-06 02:06:00,63.5,62.9,29.98,ENE,68,3.5,3.5,98,0.00,CLR,,0.06,WeatherDisplay:10.37,2013-05-06 06:06:00,
2013-05-06 02:11:00,63.5,62.9,29.98,WNW,292,3.5,3.5,98,0.00,CLR,,0.06,WeatherDisplay:10.37,2013-05-06 06:11:00,
2013-05-06 02:16:00,63.5,62.9,29.98,NE,45,4.0,4.0,98,0.00,CLR,,0.06,WeatherDisplay:10.37,2013-05-06 06:16:00,
2013-05-06 02:21:00,63.5,62.9,29.98,NE,45,4.8,4.8,98,0.00,CLR,,0.06,WeatherDisplay:10.37,2013-05-06 06:21:00,
2013-05-06 02:26:00,63.1,62.5,29.98,South,180,5.8,5.8,98,0.00,CLR,,0.06,WeatherDisplay:10.37,2013-05-06 06:26:00,
2013-05-06 02:31:00,63.1,62.5,29.98,SSW,202,1.1,1.1,98,0.00,CLR,,0.06,WeatherDisplay:10.37,2013-05-06 06:31:00,
2013-05-06 02:36:00,63.1,62.5,29.98,SSW,202,0.0,0.0,98,0.00,CLR,,0.06,WeatherDisplay:10.37,2013-05-06 06:36:00,
2013-05-06 02:41:00,63.1,62.5,29.97,SSW,202,0.0,0.0,98,0.00,CLR,,0.06,WeatherDisplay:10.37,2013-05-06 06:41:00,
2013-05-06 02:46:00,63.0,62.4,29.97,SSW,202,0.0,0.0,98,0.00,CLR,,0.06,WeatherDisplay:10.37,2013-05-06 06:46:00,
2013-05-06 02:51:00,63.0,62.4,29.97,SSW,202,0.0,0.0,98,0.00,CLR,,0.06,WeatherDisplay:10.37,2013-05-06 06:51:00,
2013-05-06 02:56:00,62.8,62.2,29.97,SSW,202,0.0,0.0,98,0.00,CLR,,0.06,WeatherDisplay:10.37,2013-05-06 06:56:00,
2013-05-06 03:01:00,62.8,62.2,29.97,SSW,202,0.0,0.0,98,0.00,CLR,,0.06,WeatherDisplay:10.37,2013-05-06 07:01:00,
2013-05-06 03:06:00,62.6,62.0,29.96,SSW,202,1.1,1.1,98,0.00,CLR,,0.06,WeatherDisplay:10.37,2013-05-06 07:06:00,
2013-05-06 03:11:00,62.4,61.8,29.96,SSW,202,0.0,0.0,98,0.00,CLR,,0.06,WeatherDisplay:10.37,2013-05-06 07:11:00,
2013-05-06 03:16:00,62.4,61.8,29.96,SSW,202,0.0,0.0,98,0.00,CLR,,0.06,WeatherDisplay:10.37,2013-05-06 07:16:00,
2013-05-06 03:21:00,62.4,61.8,29.96,South,180,2.3,0.0,98,0.00,CLR,,0.06,WeatherDisplay:10.37,2013-05-06 07:21:00,
2013-05-06 03:26:00,62.2,61.6,29.95,South,180,2.3,0.0,98,0.00,CLR,,0.06,WeatherDisplay:10.37,2013-05-06 07:26:00,
2013-05-06 03:31:00,62.2,61.6,29.95,WSW,248,2.5,2.5,98,0.00,CLR,,0.06,WeatherDisplay:10.37,2013-05-06 07:31:00,
2013-05-06 03:36:00,62.2,61.6,29.95,North,360,4.6,4.6,98,0.00,CLR,,0.06,WeatherDisplay:10.37,2013-05-06 07:36:00,
2013-05-06 03:41:00,62.2,61.6,29.95,SE,135,3.5,3.5,98,0.00,CLR,,0.06,WeatherDisplay:10.37,2013-05-06 07:41:00,
2013-05-06 03:46:00,62.4,61.8,29.95,ENE,68,3.5,3.5,98,0.00,CLR,,0.06,WeatherDisplay:10.37,2013-05-06 07:46:00,
2013-05-06 03:51:00,62.8,62.2,29.94,WNW,292,3.5,3.5,98,0.00,CLR,,0.06,WeatherDisplay:10.37,2013-05-06 07:51:00,
2013-05-06 03:56:00,62.8,62.2,29.94,NE,45,6.9,6.9,98,0.00,CLR,,0.06,WeatherDisplay:10.37,2013-05-06 07:56:00,
2013-05-06 04:02:00,63.0,62.4,29.94,SE,135,4.6,4.6,98,0.00,CLR,,0.06,WeatherDisplay:10.37,2013-05-06 08:02:00,
2013-05-06 04:07:00,63.3,62.7,29.93,ENE,68,3.5,4.0,98,0.00,CLR,,0.06,WeatherDisplay:10.37,2013-05-06 08:07:00,
2013-05-06 04:12:00,63.5,62.9,29.93,South,180,6.9,6.9,98,0.00,CLR,,0.06,WeatherDisplay:10.37,2013-05-06 08:12:00,
2013-05-06 04:17:00,63.5,62.9,29.93,SSE,158,4.0,4.0,98,0.00,CLR,,0.06,WeatherDisplay:10.37,2013-05-06 08:17:00,
2013-05-06 04:22:00,63.5,62.9,29.93,South,180,4.6,4.6,98,0.00,CLR,,0.06,WeatherDisplay:10.37,2013-05-06 08:22:00,
2013-05-06 04:27:00,63.9,63.3,29.92,South,180,3.5,3.5,98,0.00,CLR,,0.06,WeatherDisplay:10.37,2013-05-06 08:27:00,
2013-05-06 04:32:00,63.7,63.1,29.92,SE,135,3.5,3.5,98,0.00,CLR,,0.06,WeatherDisplay:10.37,2013-05-06 08:32:00,
2013-05-06 04:37:00,64.0,63.4,29.92,South,180,4.6,4.6,98,0.00,CLR,,0.06,WeatherDisplay:10.37,2013-05-06 08:37:00,
2013-05-06 04:42:00,64.0,63.4,29.92,SW,225,3.5,4.0,98,0.00,CLR,,0.06,WeatherDisplay:10.37,2013-05-06 08:42:00,
2013-05-06 04:47:00,64.0,63.4,29.92,SSE,158,6.9,6.9,98,0.00,CLR,,0.06,WeatherDisplay:10.37,2013-05-06 08:47:00,
2013-05-06 04:52:00,64.2,63.6,29.92,SSW,202,3.5,3.5,98,0.00,CLR,,0.06,WeatherDisplay:10.37,2013-05-06 08:52:00,
2013-05-06 04:57:00,64.0,63.4,29.92,South,180,0.0,0.0,98,0.00,CLR,,0.06,WeatherDisplay:10.37,2013-05-06 08:57:00,
2013-05-06 05:02:00,64.0,63.4,29.93,South,180,0.0,0.0,98,0.00,CLR,,0.06,WeatherDisplay:10.37,2013-05-06 09:02:00,
2013-05-06 05:07:00,64.2,63.6,29.93,South,180,3.5,3.5,98,0.00,CLR,,0.06,WeatherDisplay:10.37,2013-05-06 09:07:00,
2013-05-06 05:12:00,64.2,63.6,29.93,West,270,4.0,4.0,98,0.00,CLR,,0.06,WeatherDisplay:10.37,2013-05-06 09:12:00,
2013-05-06 05:17:00,64.2,63.6,29.93,West,270,4.6,4.6,98,0.00,CLR,,0.06,WeatherDisplay:10.37,2013-05-06 09:17:00,
2013-05-06 05:22:00,64.0,63.4,29.93,South,180,3.5,3.5,98,0.00,CLR,,0.06,WeatherDisplay:10.37,2013-05-06 09:22:00,
2013-05-06 05:27:00,63.9,63.3,29.94,NNE,22,2.3,2.3,98,0.00,CLR,,0.06,WeatherDisplay:10.37,2013-05-06 09:27:00,
2013-05-06 05:32:00,63.9,63.3,29.94,WSW,248,2.3,2.3,98,0.00,CLR,,0.06,WeatherDisplay:10.37,2013-05-06 09:32:00,
2013-05-06 05:37:00,64.0,63.4,29.94,SSE,158,3.5,3.5,98,0.00,CLR,,0.06,WeatherDisplay:10.37,2013-05-06 09:37:00,
2013-05-06 05:42:00,64.0,63.4,29.94,SSW,202,2.3,2.3,98,0.00,CLR,,0.06,WeatherDisplay:10.37,2013-05-06 09:42:00,
2013-05-06 05:47:00,63.9,63.3,29.94,WSW,248,0.0,0.0,98,0.00,CLR,,0.06,WeatherDisplay:10.37,2013-05-06 09:47:00,
2013-05-06 05:52:00,64.0,63.4,29.94,NNE,22,2.3,2.3,98,0.00,CLR,,0.06,WeatherDisplay:10.37,2013-05-06 09:52:00,
2013-05-06 05:57:00,64.0,63.4,29.94,West,270,4.6,4.6,98,0.00,CLR,,0.06,WeatherDisplay:10.37,2013-05-06 09:57:00,
2013-05-06 06:02:00,63.7,63.1,29.94,WNW,292,1.1,1.1,98,0.00,CLR,,0.06,WeatherDisplay:10.37,2013-05-06 10:02:00,
2013-05-06 06:07:00,63.7,63.1,29.94,East,90,2.3,2.3,98,0.00,CLR,,0.06,WeatherDisplay:10.37,2013-05-06 10:07:00,
2013-05-06 06:12:00,63.5,62.9,29.94,ESE,112,2.3,2.3,98,0.00,CLR,,0.06,WeatherDisplay:10.37,2013-05-06 10:12:00,
2013-05-06 06:17:00,63.5,62.9,29.94,SW,225,5.8,5.8,98,0.00,CLR,,0.06,WeatherDisplay:10.37,2013-05-06 10:17:00,
2013-05-06 06:22:00,63.5,62.9,29.94,South,180,0.0,0.0,98,0.00,CLR,,0.06,WeatherDisplay:10.37,2013-05-06 10:22:00,
2013-05-06 06:27:00,63.5,62.9,29.94,WNW,292,0.0,0.0,98,0.00,CLR,,0.06,WeatherDisplay:10.37,2013-05-06 10:27:00,
2013-05-06 06:32:00,63.7,63.1,29.94,South,180,0.0,0.0,98,0.00,CLR,,0.06,WeatherDisplay:10.37,2013-05-06 10:32:00,
2013-05-06 06:37:00,63.7,63.1,29.94,West,270,3.5,3.5,98,0.00,CLR,,0.06,WeatherDisplay:10.37,2013-05-06 10:37:00,
2013-05-06 06:42:00,64.0,63.4,29.94,WNW,292,2.3,2.3,98,0.00,CLR,,0.06,WeatherDisplay:10.37,2013-05-06 10:42:00,
2013-05-06 06:47:00,64.0,63.4,29.94,West,270,2.3,0.0,98,0.00,CLR,,0.06,WeatherDisplay:10.37,2013-05-06 10:47:00,
2013-05-06 06:52:00,64.2,63.6,29.95,ESE,112,2.3,2.3,98,0.00,CLR,,0.06,WeatherDisplay:10.37,2013-05-06 10:52:00,
2013-05-06 06:57:00,64.2,63.6,29.95,SW,225,3.5,3.5,98,0.00,CLR,,0.06,WeatherDisplay:10.37,2013-05-06 10:57:00,
2013-05-06 07:02:00,64.4,63.8,29.95,SSE,158,6.9,6.9,98,0.00,CLR,,0.06,WeatherDisplay:10.37,2013-05-06 11:02:00,
2013-05-06 07:07:00,64.8,64.2,29.95,South,180,2.5,2.5,98,0.00,CLR,,0.06,WeatherDisplay:10.37,2013-05-06 11:07:00,
2013-05-06 07:12:00,64.8,64.2,29.95,SSW,202,0.0,0.0,98,0.00,CLR,,0.06,WeatherDisplay:10.37,2013-05-06 11:12:00,
2013-05-06 07:17:00,65.3,63.2,29.96,South,180,0.0,0.0,93,0.00,CLR,,0.06,WeatherDisplay:10.37,2013-05-06 11:17:00,
2013-05-06 07:22:00,65.5,62.8,29.96,South,180,4.8,4.8,91,0.00,CLR,,0.06,WeatherDisplay:10.37,2013-05-06 11:22:00,
2013-05-06 07:27:00,65.8,62.5,29.96,ESE,112,6.9,6.9,89,0.00,CLR,,0.06,WeatherDisplay:10.37,2013-05-06 11:27:00,
2013-05-06 07:32:00,66.0,62.3,29.96,SSW,202,2.5,2.7,88,0.00,CLR,,0.06,WeatherDisplay:10.37,2013-05-06 11:32:00,
2013-05-06 07:37:00,66.4,62.4,29.96,ESE,112,4.8,4.8,87,0.00,CLR,,0.06,WeatherDisplay:10.37,2013-05-06 11:37:00,
2013-05-06 07:42:00,66.9,62.6,29.96,SSW,202,10.4,10.4,86,0.00,CLR,,0.06,WeatherDisplay:10.37,2013-05-06 11:42:00,
2013-05-06 07:47:00,67.6,62.9,29.96,SSE,158,6.9,6.9,85,0.00,CLR,,0.06,WeatherDisplay:10.37,2013-05-06 11:47:00,
2013-05-06 07:52:00,68.0,63.0,29.96,ESE,112,3.5,3.5,84,0.00,CLR,,0.06,WeatherDisplay:10.37,2013-05-06 11:52:00,
2013-05-06 07:57:00,68.0,63.7,29.96,South,180,3.3,3.3,86,0.00,CLR,,0.06,WeatherDisplay:10.37,2013-05-06 11:57:00,
2013-05-06 08:02:00,69.3,63.9,29.95,ESE,112,6.9,6.9,83,0.00,CLR,,0.06,WeatherDisplay:10.37,2013-05-06 12:02:00,
2013-05-06 08:07:00,70.5,64.4,29.95,West,270,3.5,3.5,81,0.00,CLR,,0.06,WeatherDisplay:10.37,2013-05-06 12:07:00,
2013-05-06 08:12:00,70.3,63.8,29.95,South,180,7.9,7.9,80,0.00,CLR,,0.06,WeatherDisplay:10.37,2013-05-06 12:12:00,
2013-05-06 08:17:00,69.8,63.7,29.95,South,180,5.6,5.6,81,0.00,CLR,,0.06,WeatherDisplay:10.37,2013-05-06 12:17:00,
2013-05-06 08:22:00,70.2,63.7,29.95,ESE,112,6.9,6.9,80,0.00,CLR,,0.06,WeatherDisplay:10.37,2013-05-06 12:22:00,
2013-05-06 08:27:00,70.3,64.2,29.95,East,90,5.8,5.8,81,0.00,CLR,,0.06,WeatherDisplay:10.37,2013-05-06 12:27:00,
2013-05-06 08:32:00,71.4,63.8,29.95,ESE,112,5.6,5.6,77,0.00,CLR,,0.06,WeatherDisplay:10.37,2013-05-06 12:32:00,
2013-05-06 08:37:00,71.4,64.2,29.95,South,180,6.9,6.9,78,0.00,CLR,,0.06,WeatherDisplay:10.37,2013-05-06 12:37:00,
2013-05-06 08:42:00,70.9,64.1,29.95,West,270,8.1,8.1,79,0.00,CLR,,0.06,WeatherDisplay:10.37,2013-05-06 12:42:00,
2013-05-06 08:47:00,70.9,64.4,29.95,West,270,3.5,3.5,80,0.00,CLR,,0.06,WeatherDisplay:10.37,2013-05-06 12:47:00,
2013-05-06 08:52:00,71.4,63.1,29.96,NNW,338,4.6,4.6,75,0.00,CLR,,0.06,WeatherDisplay:10.37,2013-05-06 12:52:00,
2013-05-06 08:57:00,71.2,63.6,29.96,South,180,5.8,5.8,77,0.00,CLR,,0.06,WeatherDisplay:10.37,2013-05-06 12:57:00,
2013-05-06 09:02:00,70.9,64.1,29.96,West,270,6.9,6.9,79,0.00,CLR,,0.06,WeatherDisplay:10.37,2013-05-06 13:02:00,
2013-05-06 09:08:00,71.0,63.5,29.96,SW,225,2.5,2.5,77,0.00,CLR,,0.06,WeatherDisplay:10.37,2013-05-06 13:08:00,
2013-05-06 09:13:00,71.2,62.8,29.96,West,270,4.6,4.6,75,0.00,CLR,,0.06,WeatherDisplay:10.37,2013-05-06 13:13:00,
2013-05-06 09:18:00,71.2,63.2,29.97,SW,225,4.6,4.6,76,0.00,CLR,,0.06,WeatherDisplay:10.37,2013-05-06 13:18:00,
2013-05-06 09:23:00,71.6,64.0,29.97,ESE,112,3.5,3.5,77,0.00,CLR,,0.06,WeatherDisplay:10.37,2013-05-06 13:23:00,
2013-05-06 09:28:00,71.5,63.9,29.97,West,270,2.5,3.2,77,0.00,CLR,,0.06,WeatherDisplay:10.37,2013-05-06 13:28:00,
2013-05-06 09:33:00,70.0,64.2,29.97,WSW,248,3.5,3.5,82,0.00,CLR,,0.06,WeatherDisplay:10.37,2013-05-06 13:33:00,
2013-05-06 09:38:00,71.1,64.2,29.97,South,180,4.6,4.6,79,0.00,CLR,,0.06,WeatherDisplay:10.37,2013-05-06 13:38:00,
2013-05-06 09:43:00,70.9,63.4,29.98,SSE,158,1.1,0.0,77,0.00,CLR,,0.06,WeatherDisplay:10.37,2013-05-06 13:43:00,
2013-05-06 09:48:00,70.3,64.2,29.98,WNW,292,5.8,5.8,81,0.00,CLR,,0.06,WeatherDisplay:10.37,2013-05-06 13:48:00,
2013-05-06 09:53:00,71.1,64.3,29.97,SSW,202,4.6,5.2,79,0.00,CLR,,0.06,WeatherDisplay:10.37,2013-05-06 13:53:00,
2013-05-06 09:58:00,71.4,64.9,29.97,SE,135,4.6,4.6,80,0.00,CLR,,0.06,WeatherDisplay:10.37,2013-05-06 13:58:00,
2013-05-06 10:03:00,71.3,63.4,29.97,SSE,158,6.3,6.3,76,0.00,CLR,,0.06,WeatherDisplay:10.37,2013-05-06 14:03:00,
2013-05-06 10:08:00,72.9,64.5,29.98,SE,135,8.1,8.1,75,0.00,CLR,,0.06,WeatherDisplay:10.37,2013-05-06 14:08:00,
2013-05-06 10:13:00,72.5,64.9,29.98,South,180,4.0,4.0,77,0.00,CLR,,0.06,WeatherDisplay:10.37,2013-05-06 14:13:00,
2013-05-06 10:18:00,73.0,64.6,29.97,SE,135,10.4,10.4,75,0.00,CLR,,0.06,WeatherDisplay:10.37,2013-05-06 14:18:00,
2013-05-06 10:23:00,73.1,63.6,29.97,ESE,112,4.6,4.6,72,0.00,CLR,,0.06,WeatherDisplay:10.37,2013-05-06 14:23:00,
2013-05-06 10:28:00,73.1,63.6,29.97,West,270,4.6,4.6,72,0.00,CLR,,0.06,WeatherDisplay:10.37,2013-05-06 14:28:00,
2013-05-06 10:33:00,73.0,65.0,29.97,South,180,6.9,6.9,76,0.00,CLR,,0.06,WeatherDisplay:10.37,2013-05-06 14:33:00,
2013-05-06 10:38:00,73.2,64.4,29.97,NNW,338,3.5,3.5,74,0.00,CLR,,0.06,WeatherDisplay:10.37,2013-05-06 14:38:00,
2013-05-06 10:43:00,73.2,63.6,29.97,WSW,248,4.6,4.6,72,0.00,CLR,,0.06,WeatherDisplay:10.37,2013-05-06 14:43:00,
2013-05-06 10:48:00,73.2,63.6,29.97,ESE,112,7.9,7.9,72,0.00,CLR,,0.06,WeatherDisplay:10.37,2013-05-06 14:48:00,
2013-05-06 10:53:00,73.2,64.4,29.97,SSE,158,5.8,5.8,74,0.00,CLR,,0.06,WeatherDisplay:10.37,2013-05-06 14:53:00,
2013-05-06 10:58:00,72.7,63.9,29.97,ESE,112,4.6,4.6,74,0.00,CLR,,0.06,WeatherDisplay:10.37,2013-05-06 14:58:00,
2013-05-06 11:03:00,73.0,63.8,29.97,SSE,158,3.5,3.6,73,0.00,CLR,,0.06,WeatherDisplay:10.37,2013-05-06 15:03:00,
2013-05-06 11:08:00,73.0,62.3,29.97,SW,225,4.0,4.0,69,0.00,CLR,,0.06,WeatherDisplay:10.37,2013-05-06 15:08:00,
2013-05-06 11:13:00,72.7,61.5,29.97,SW,225,6.9,6.9,68,0.00,CLR,,0.06,WeatherDisplay:10.37,2013-05-06 15:13:00,
2013-05-06 11:18:00,73.0,62.6,29.97,SSE,158,6.9,6.9,70,0.00,CLR,,0.06,WeatherDisplay:10.37,2013-05-06 15:18:00,
2013-05-06 11:23:00,73.2,63.6,29.97,West,270,4.8,4.8,72,0.00,CLR,,0.06,WeatherDisplay:10.37,2013-05-06 15:23:00,
2013-05-06 11:28:00,73.2,63.6,29.97,SW,225,2.3,0.0,72,0.00,CLR,,0.06,WeatherDisplay:10.37,2013-05-06 15:28:00,
2013-05-06 11:33:00,73.2,63.6,29.97,East,90,3.5,3.5,72,0.00,CLR,,0.06,WeatherDisplay:10.37,2013-05-06 15:33:00,
2013-05-06 11:38:00,73.2,64.0,29.96,SSE,158,4.6,4.6,73,0.00,CLR,,0.06,WeatherDisplay:10.37,2013-05-06 15:38:00,
2013-05-06 11:43:00,72.7,64.3,29.96,South,180,3.5,3.5,75,0.00,CLR,,0.06,WeatherDisplay:10.37,2013-05-06 15:43:00,
2013-05-06 11:48:00,73.0,64.2,29.96,ESE,112,4.6,4.6,74,0.00,CLR,,0.06,WeatherDisplay:10.37,2013-05-06 15:48:00,
2013-05-06 11:53:00,73.1,63.5,29.96,WSW,248,4.8,4.8,72,0.00,CLR,,0.06,WeatherDisplay:10.37,2013-05-06 15:53:00,
2013-05-06 11:58:00,73.1,63.1,29.96,WSW,248,2.5,2.5,71,0.00,CLR,,0.06,WeatherDisplay:10.37,2013-05-06 15:58:00,
2013-05-06 12:03:00,73.1,62.3,29.95,WSW,248,4.0,4.0,69,0.00,CLR,,0.06,WeatherDisplay:10.37,2013-05-06 16:03:00,
2013-05-06 12:08:00,73.1,62.7,29.95,SSW,202,3.5,3.5,70,0.00,CLR,,0.06,WeatherDisplay:10.37,2013-05-06 16:08:00,
2013-05-06 12:13:00,73.1,65.0,29.95,SE,135,4.6,4.6,76,0.00,CLR,,0.06,WeatherDisplay:10.37,2013-05-06 16:13:00,
2013-05-06 12:18:00,73.0,65.0,29.95,SW,225,4.0,4.0,76,0.00,CLR,,0.06,WeatherDisplay:10.37,2013-05-06 16:18:00,
2013-05-06 12:23:00,73.0,63.5,29.95,West,270,3.5,3.5,72,0.00,CLR,,0.06,WeatherDisplay:10.37,2013-05-06 16:23:00,
2013-05-06 12:28:00,73.0,63.5,29.94,NNW,338,3.5,3.5,72,0.00,CLR,,0.06,WeatherDisplay:10.37,2013-05-06 16:28:00,
2013-05-06 12:33:00,73.1,63.5,29.94,SSW,202,7.9,7.9,72,0.00,CLR,,0.06,WeatherDisplay:10.37,2013-05-06 16:33:00,
2013-05-06 12:38:00,72.9,64.5,29.94,SSW,202,3.5,3.5,75,0.00,CLR,,0.06,WeatherDisplay:10.37,2013-05-06 16:38:00,
2013-05-06 12:43:00,72.9,64.9,29.94,SSW,202,4.6,4.6,76,0.00,CLR,,0.06,WeatherDisplay:10.37,2013-05-06 16:43:00,
2013-05-06 12:48:00,73.0,64.2,29.94,West,270,4.0,4.0,74,0.00,CLR,,0.06,WeatherDisplay:10.37,2013-05-06 16:48:00,
2013-05-06 12:53:00,72.7,63.9,29.94,East,90,9.2,9.2,74,0.00,CLR,,0.06,WeatherDisplay:10.37,2013-05-06 16:53:00,
2013-05-06 12:58:00,72.3,64.3,29.94,SE,135,3.5,3.5,76,0.00,CLR,,0.06,WeatherDisplay:10.37,2013-05-06 16:58:00,
2013-05-06 13:03:00,71.4,63.4,29.94,ESE,112,3.5,3.5,76,0.00,CLR,,0.06,WeatherDisplay:10.37,2013-05-06 17:03:00,
2013-05-06 13:08:00,70.7,62.8,29.94,ESE,112,4.0,4.0,76,0.00,CLR,,0.06,WeatherDisplay:10.37,2013-05-06 17:08:00,
2013-05-06 13:13:00,70.2,63.0,29.94,SSW,202,4.0,4.0,78,0.00,CLR,,0.06,WeatherDisplay:10.37,2013-05-06 17:13:00,
2013-05-06 13:18:00,70.0,62.8,29.94,SW,225,4.6,4.6,78,0.00,CLR,,0.06,WeatherDisplay:10.37,2013-05-06 17:18:00,
2013-05-06 13:23:00,69.3,62.5,29.94,ESE,112,4.8,4.8,79,0.00,CLR,,0.06,WeatherDisplay:10.37,2013-05-06 17:23:00,
2013-05-06 13:28:00,68.7,62.6,29.95,SW,225,3.5,3.5,81,0.00,CLR,,0.06,WeatherDisplay:10.37,2013-05-06 17:28:00,
2013-05-06 13:33:00,68.2,63.2,29.95,ESE,112,5.8,5.8,84,0.00,CLR,,0.06,WeatherDisplay:10.37,2013-05-06 17:33:00,
2013-05-06 13:38:00,68.0,64.0,29.95,SSW,202,6.9,6.9,87,0.00,CLR,,0.06,WeatherDisplay:10.37,2013-05-06 17:38:00,
2013-05-06 13:43:00,67.5,63.5,29.95,ESE,112,5.8,5.8,87,0.00,CLR,,0.06,WeatherDisplay:10.37,2013-05-06 17:43:00,
2013-05-06 13:48:00,67.3,63.9,29.95,SSW,202,4.6,4.6,89,0.00,CLR,,0.06,WeatherDisplay:10.37,2013-05-06 17:48:00,
2013-05-06 13:53:00,66.7,63.7,29.95,WSW,248,4.6,4.6,90,0.00,CLR,,0.06,WeatherDisplay:10.37,2013-05-06 17:53:00,
2013-05-06 13:58:00,66.6,65.7,29.95,East,90,3.5,3.5,97,0.00,CLR,,0.06,WeatherDisplay:10.37,2013-05-06 17:58:00,
2013-05-06 14:03:00,66.2,65.6,29.94,SE,135,3.5,3.5,98,0.00,CLR,,0.06,WeatherDisplay:10.37,2013-05-06 18:03:00,
2013-05-06 14:08:00,66.0,65.4,29.94,West,270,3.3,3.3,98,0.01,RA,,0.08,WeatherDisplay:10.37,2013-05-06 18:08:00,
2013-05-06 14:13:00,65.7,65.1,29.94,South,180,3.5,5.2,98,0.02,RA,,0.09,WeatherDisplay:10.37,2013-05-06 18:13:00,
2013-05-06 14:18:00,65.5,64.9,29.95,West,270,3.5,3.5,98,0.04,RA,,0.10,WeatherDisplay:10.37,2013-05-06 18:18:00,
2013-05-06 14:23:00,65.5,64.9,29.95,West,270,3.5,3.9,98,0.04,RA,,0.11,WeatherDisplay:10.37,2013-05-06 18:23:00,
2013-05-06 14:29:00,65.1,64.5,29.94,SSW,202,4.6,0.0,98,0.05,RA,,0.11,WeatherDisplay:10.37,2013-05-06 18:29:00,
2013-05-06 14:34:00,65.1,64.5,29.94,South,180,3.5,3.5,98,0.06,RA,,0.12,WeatherDisplay:10.37,2013-05-06 18:34:00,
2013-05-06 14:39:00,64.9,64.3,29.93,SSE,158,6.9,6.9,98,0.06,RA,,0.12,WeatherDisplay:10.37,2013-05-06 18:39:00,
2013-05-06 14:44:00,64.9,64.3,29.93,ESE,112,4.0,4.1,98,0.07,RA,,0.13,WeatherDisplay:10.37,2013-05-06 18:44:00,
2013-05-06 14:48:00,64.9,64.3,29.93,SSW,202,1.1,0.0,98,0.07,RA,,0.13,WeatherDisplay:10.37,2013-05-06 18:48:00,
2013-05-06 14:54:00,64.9,64.3,29.94,SW,225,4.6,4.6,98,0.07,CLR,,0.13,WeatherDisplay:10.37,2013-05-06 18:54:00,
2013-05-06 14:59:00,65.1,64.5,29.94,West,270,2.5,2.5,98,0.08,RA,,0.14,WeatherDisplay:10.37,2013-05-06 18:59:00,
2013-05-06 15:04:00,64.9,64.3,29.94,West,270,3.5,3.5,98,0.09,RA,,0.15,WeatherDisplay:10.37,2013-05-06 19:04:00,
2013-05-06 15:09:00,64.9,64.3,29.94,WSW,248,0.0,0.0,98,0.09,RA,,0.16,WeatherDisplay:10.37,2013-05-06 19:09:00,
2013-05-06 15:14:00,64.9,64.3,29.94,WSW,248,0.0,0.0,98,0.10,RA,,0.18,WeatherDisplay:10.37,2013-05-06 19:14:00,
2013-05-06 15:19:00,64.9,64.3,29.94,WNW,292,0.0,0.0,98,0.12,RA,,0.24,WeatherDisplay:10.37,2013-05-06 19:19:00,
2013-05-06 15:24:00,64.8,64.2,29.94,West,270,4.6,4.6,98,0.16,RA,,0.26,WeatherDisplay:10.37,2013-05-06 19:24:00,
2013-05-06 15:29:00,64.9,64.3,29.93,SSW,202,2.3,0.0,98,0.15,RA,,0.27,WeatherDisplay:10.37,2013-05-06 19:29:00,
2013-05-06 15:34:00,65.1,64.5,29.93,ENE,68,3.3,3.3,98,0.15,RA,,0.27,WeatherDisplay:10.37,2013-05-06 19:34:00,
2013-05-06 15:39:00,65.3,64.7,29.92,NE,45,7.1,7.1,98,0.17,RA,,0.30,WeatherDisplay:10.37,2013-05-06 19:39:00,
2013-05-06 15:44:00,65.1,64.5,29.92,ESE,112,4.6,4.7,98,0.22,RA,,0.36,WeatherDisplay:10.37,2013-05-06 19:44:00,
2013-05-06 15:49:00,65.5,64.9,29.92,ESE,112,8.1,8.1,98,0.25,RA,,0.38,WeatherDisplay:10.37,2013-05-06 19:49:00,
2013-05-06 15:54:00,65.7,65.1,29.90,South,180,8.1,8.1,98,0.25,RA,,0.38,WeatherDisplay:10.37,2013-05-06 19:54:00,
2013-05-06 15:59:00,65.8,65.2,29.90,SSW,202,9.2,9.2,98,0.24,,,0.38,WeatherDisplay:10.37,2013-05-06 19:59:00,
2013-05-06 16:04:00,66.0,65.4,29.90,West,270,5.8,5.8,98,0.23,CLR,,0.38,WeatherDisplay:10.37,2013-05-06 20:04:00,
2013-05-06 16:09:00,65.8,65.2,29.90,East,90,6.9,6.9,98,0.22,CLR,,0.38,WeatherDisplay:10.37,2013-05-06 20:09:00,
2013-05-06 16:14:00,65.7,65.1,29.90,SSW,202,2.3,2.3,98,0.20,CLR,,0.38,WeatherDisplay:10.37,2013-05-06 20:14:00,
2013-05-06 16:19:00,64.9,64.3,29.90,ESE,112,6.9,6.9,98,0.15,RA,,0.39,WeatherDisplay:10.37,2013-05-06 20:19:00,
2013-05-06 16:24:00,64.9,64.3,29.90,SSE,158,5.8,5.8,98,0.14,RA,,0.40,WeatherDisplay:10.37,2013-05-06 20:24:00,
2013-05-06 16:29:00,64.9,64.3,29.90,East,90,3.5,3.5,98,0.13,RA,,0.40,WeatherDisplay:10.37,2013-05-06 20:29:00,
2013-05-06 16:34:00,64.9,64.3,29.90,NNE,22,5.6,5.6,98,0.13,CLR,,0.40,WeatherDisplay:10.37,2013-05-06 20:34:00,
2013-05-06 16:39:00,65.1,64.5,29.89,ENE,68,3.5,3.5,98,0.10,CLR,,0.40,WeatherDisplay:10.37,2013-05-06 20:39:00,
2013-05-06 16:44:00,65.1,64.5,29.89,SE,135,7.9,7.9,98,0.04,CLR,,0.40,WeatherDisplay:10.37,2013-05-06 20:44:00,
2013-05-06 16:49:00,65.3,64.7,29.89,ESE,112,4.8,4.8,98,0.02,CLR,,0.40,WeatherDisplay:10.37,2013-05-06 20:49:00,
2013-05-06 16:54:00,65.5,64.9,29.89,ESE,112,11.5,11.5,98,0.02,CLR,,0.40,WeatherDisplay:10.37,2013-05-06 20:54:00,
2013-05-06 16:59:00,65.7,65.1,29.89,SSE,158,9.2,9.2,98,0.02,CLR,,0.40,WeatherDisplay:10.37,2013-05-06 20:59:00,
2013-05-06 17:04:00,66.2,65.6,29.88,WSW,248,6.9,6.9,98,0.03,RA,,0.41,WeatherDisplay:10.37,2013-05-06 21:04:00,
2013-05-06 17:09:00,66.9,66.3,29.88,East,90,7.1,7.1,98,0.03,RA,,0.41,WeatherDisplay:10.37,2013-05-06 21:09:00,
2013-05-06 17:14:00,67.1,66.5,29.88,SSE,158,6.9,6.9,98,0.03,CLR,,0.41,WeatherDisplay:10.37,2013-05-06 21:14:00,
2013-05-06 17:19:00,67.3,66.7,29.89,SSE,158,3.5,3.5,98,0.02,CLR,,0.41,WeatherDisplay:10.37,2013-05-06 21:19:00,
2013-05-06 17:24:00,67.6,67.0,29.89,SSE,158,4.6,4.6,98,0.01,CLR,,0.41,WeatherDisplay:10.37,2013-05-06 21:24:00,
2013-05-06 17:29:00,67.5,66.9,29.89,SSE,158,3.5,3.5,98,0.01,CLR,,0.41,WeatherDisplay:10.37,2013-05-06 21:29:00,
2013-05-06 17:34:00,67.1,66.5,29.89,SW,225,3.5,3.5,98,0.01,CLR,,0.41,WeatherDisplay:10.37,2013-05-06 21:34:00,
2013-05-06 17:39:00,67.1,66.5,29.89,SSW,202,0.0,0.0,98,0.01,CLR,,0.41,WeatherDisplay:10.37,2013-05-06 21:39:00,
2013-05-06 17:44:00,66.9,66.3,29.89,East,90,2.5,2.5,98,0.01,CLR,,0.41,WeatherDisplay:10.37,2013-05-06 21:44:00,
2013-05-06 17:49:00,66.9,66.3,29.89,ESE,112,3.5,3.5,98,0.01,CLR,,0.41,WeatherDisplay:10.37,2013-05-06 21:49:00,
2013-05-06 17:54:00,66.6,66.0,29.89,SE,135,2.3,2.3,98,0.01,CLR,,0.41,WeatherDisplay:10.37,2013-05-06 21:54:00,
2013-05-06 17:59:00,66.4,65.8,29.89,NW,315,5.8,5.8,98,0.01,CLR,,0.41,WeatherDisplay:10.37,2013-05-06 21:59:00,
2013-05-06 18:04:00,66.2,65.6,29.89,NW,315,0.0,0.0,98,0.00,CLR,,0.41,WeatherDisplay:10.37,2013-05-06 22:04:00,
2013-05-06 18:09:00,66.2,65.6,29.89,South,180,4.8,4.8,98,0.00,CLR,,0.41,WeatherDisplay:10.37,2013-05-06 22:09:00,
2013-05-06 18:14:00,66.2,65.6,29.89,East,90,3.5,3.5,98,0.00,CLR,,0.41,WeatherDisplay:10.37,2013-05-06 22:14:00,
2013-05-06 18:19:00,66.0,65.4,29.89,SSE,158,6.9,6.9,98,0.00,CLR,,0.41,WeatherDisplay:10.37,2013-05-06 22:19:00,
2013-05-06 18:24:00,66.2,65.6,29.89,South,180,3.5,3.5,98,0.00,CLR,,0.41,WeatherDisplay:10.37,2013-05-06 22:24:00,
2013-05-06 18:29:00,66.2,65.6,29.89,East,90,4.0,4.0,98,0.00,CLR,,0.41,WeatherDisplay:10.37,2013-05-06 22:29:00,
2013-05-06 18:34:00,66.4,65.8,29.89,SW,225,2.3,2.3,98,0.00,CLR,,0.41,WeatherDisplay:10.37,2013-05-06 22:34:00,
2013-05-06 18:39:00,66.4,65.8,29.89,South,180,5.6,5.6,98,0.00,CLR,,0.41,WeatherDisplay:10.37,2013-05-06 22:39:00,
2013-05-06 18:44:00,66.4,65.8,29.89,SW,225,3.5,3.5,98,0.00,CLR,,0.41,WeatherDisplay:10.37,2013-05-06 22:44:00,
2013-05-06 18:49:00,66.4,65.8,29.89,East,90,3.5,3.5,98,0.00,CLR,,0.41,WeatherDisplay:10.37,2013-05-06 22:49:00,
2013-05-06 18:54:00,66.4,65.8,29.89,SSE,158,6.9,6.9,98,0.00,CLR,,0.41,WeatherDisplay:10.37,2013-05-06 22:54:00,
2013-05-06 18:59:00,66.2,65.6,29.89,South,180,3.5,3.5,98,0.00,CLR,,0.41,WeatherDisplay:10.37,2013-05-06 22:59:00,
2013-05-06 19:04:00,66.2,65.6,29.89,West,270,4.6,4.6,98,0.00,CLR,,0.41,WeatherDisplay:10.37,2013-05-06 23:04:00,
2013-05-06 19:09:00,66.2,65.6,29.89,ESE,112,3.3,3.3,98,0.00,CLR,,0.41,WeatherDisplay:10.37,2013-05-06 23:09:00,
2013-05-06 19:14:00,65.8,65.2,29.89,South,180,9.2,9.2,98,0.00,CLR,,0.41,WeatherDisplay:10.37,2013-05-06 23:14:00,
2013-05-06 19:19:00,65.8,65.2,29.89,SSW,202,3.5,3.5,98,0.00,CLR,,0.41,WeatherDisplay:10.37,2013-05-06 23:19:00,
2013-05-06 19:24:00,65.3,64.7,29.89,WSW,248,3.5,3.5,98,0.00,CLR,,0.41,WeatherDisplay:10.37,2013-05-06 23:24:00,
2013-05-06 19:29:00,65.3,64.7,29.89,South,180,3.5,3.5,98,0.00,CLR,,0.41,WeatherDisplay:10.37,2013-05-06 23:29:00,
2013-05-06 19:34:00,64.9,64.3,29.89,ESE,112,5.8,5.8,98,0.00,CLR,,0.41,WeatherDisplay:10.37,2013-05-06 23:34:00,
2013-05-06 19:39:00,64.9,64.3,29.89,WSW,248,6.9,6.9,98,0.00,CLR,,0.41,WeatherDisplay:10.37,2013-05-06 23:39:00,
2013-05-06 19:44:00,64.8,64.2,29.89,SW,225,1.1,0.0,98,0.00,CLR,,0.41,WeatherDisplay:10.37,2013-05-06 23:44:00,
2013-05-06 19:49:00,64.6,64.0,29.89,NW,315,0.0,0.0,98,0.00,CLR,,0.41,WeatherDisplay:10.37,2013-05-06 23:49:00,
2013-05-06 19:54:00,64.6,64.0,29.89,NW,315,0.0,0.0,98,0.00,CLR,,0.41,WeatherDisplay:10.37,2013-05-06 23:54:00,
2013-05-06 19:59:00,64.2,63.6,29.89,NW,315,0.0,0.0,98,0.00,CLR,,0.41,WeatherDisplay:10.37,2013-05-06 23:59:00,
2013-05-06 20:04:00,64.2,63.6,29.89,NW,315,0.0,0.0,98,0.00,CLR,,0.41,WeatherDisplay:10.37,2013-05-07 00:04:00,
2013-05-06 20:09:00,64.0,63.4,29.89,NW,315,0.0,0.0,98,0.00,CLR,,0.41,WeatherDisplay:10.37,2013-05-07 00:09:00,
2013-05-06 20:14:00,64.0,63.4,29.89,ESE,112,3.5,3.5,98,0.00,CLR,,0.41,WeatherDisplay:10.37,2013-05-07 00:14:00,
2013-05-06 20:19:00,64.0,63.4,29.89,ESE,112,1.7,1.7,98,0.00,CLR,,0.41,WeatherDisplay:10.37,2013-05-07 00:19:00,
2013-05-06 20:24:00,64.0,63.4,29.89,ESE,112,0.0,0.0,98,0.00,CLR,,0.41,WeatherDisplay:10.37,2013-05-07 00:24:00,
2013-05-06 20:30:00,64.0,63.4,29.89,SE,135,0.0,0.0,98,0.00,CLR,,0.41,WeatherDisplay:10.37,2013-05-07 00:30:00,
2013-05-06 20:35:00,64.0,63.4,29.89,NE,45,0.0,0.0,98,0.00,CLR,,0.41,WeatherDisplay:10.37,2013-05-07 00:35:00,
2013-05-06 20:40:00,64.0,63.4,29.90,West,270,0.0,0.0,98,0.00,CLR,,0.41,WeatherDisplay:10.37,2013-05-07 00:40:00,
2013-05-06 20:45:00,64.0,63.4,29.90,West,270,0.0,0.0,98,0.00,CLR,,0.41,WeatherDisplay:10.37,2013-05-07 00:45:00,
2013-05-06 20:50:00,64.0,63.4,29.90,West,270,0.0,0.0,98,0.00,CLR,,0.41,WeatherDisplay:10.37,2013-05-07 00:50:00,
2013-05-06 20:55:00,64.0,63.4,29.91,West,270,0.0,0.0,98,0.00,CLR,,0.41,WeatherDisplay:10.37,2013-05-07 00:55:00,
2013-05-06 21:00:00,64.0,63.4,29.91,West,270,0.0,0.0,98,0.00,CLR,,0.41,WeatherDisplay:10.37,2013-05-07 01:00:00,
2013-05-06 21:05:00,64.2,63.6,29.91,West,270,0.0,0.0,98,0.00,CLR,,0.41,WeatherDisplay:10.37,2013-05-07 01:05:00,
2013-05-06 21:10:00,64.2,63.6,29.91,West,270,0.0,0.0,98,0.00,CLR,,0.41,WeatherDisplay:10.37,2013-05-07 01:10:00,
2013-05-06 21:15:00,64.2,63.6,29.91,West,270,0.0,0.0,98,0.00,CLR,,0.41,WeatherDisplay:10.37,2013-05-07 01:15:00,
2013-05-06 21:20:00,64.2,63.6,29.91,West,270,0.0,0.0,98,0.00,CLR,,0.41,WeatherDisplay:10.37,2013-05-07 01:20:00,
2013-05-06 21:25:00,64.2,63.6,29.91,West,270,0.0,0.0,98,0.00,CLR,,0.41,WeatherDisplay:10.37,2013-05-07 01:25:00,
2013-05-06 21:30:00,64.2,63.6,29.91,West,270,0.0,0.0,98,0.00,CLR,,0.41,WeatherDisplay:10.37,2013-05-07 01:30:00,
2013-05-06 21:35:00,64.2,63.6,29.91,West,270,0.0,0.0,98,0.00,CLR,,0.41,WeatherDisplay:10.37,2013-05-07 01:35:00,
2013-05-06 21:40:00,64.2,63.6,29.91,West,270,0.0,0.0,98,0.00,CLR,,0.41,WeatherDisplay:10.37,2013-05-07 01:40:00,
2013-05-06 21:45:00,64.2,63.6,29.91,West,270,0.0,0.0,98,0.00,CLR,,0.41,WeatherDisplay:10.37,2013-05-07 01:45:00,
2013-05-06 21:50:00,64.2,63.6,29.91,West,270,0.0,0.0,98,0.00,CLR,,0.41,WeatherDisplay:10.37,2013-05-07 01:50:00,
2013-05-06 21:55:00,64.2,63.6,29.91,West,270,0.0,0.0,98,0.00,CLR,,0.41,WeatherDisplay:10.37,2013-05-07 01:55:00,
2013-05-06 22:00:00,64.2,63.6,29.91,West,270,0.0,0.0,98,0.00,CLR,,0.41,WeatherDisplay:10.37,2013-05-07 02:00:00,
2013-05-06 22:05:00,64.4,63.8,29.91,West,270,0.0,0.0,98,0.00,CLR,,0.41,WeatherDisplay:10.37,2013-05-07 02:05:00,
2013-05-06 22:10:00,64.4,63.8,29.91,West,270,0.0,0.0,98,0.00,CLR,,0.41,WeatherDisplay:10.37,2013-05-07 02:10:00,
2013-05-06 22:15:00,64.4,63.8,29.92,West,270,0.0,0.0,98,0.00,CLR,,0.41,WeatherDisplay:10.37,2013-05-07 02:15:00,
2013-05-06 22:20:00,64.4,63.8,29.92,West,270,0.0,0.0,98,0.00,CLR,,0.41,WeatherDisplay:10.37,2013-05-07 02:20:00,
2013-05-06 22:25:00,64.8,64.2,29.92,West,270,0.0,0.0,98,0.00,CLR,,0.41,WeatherDisplay:10.37,2013-05-07 02:25:00,
2013-05-06 22:30:00,64.9,64.3,29.92,SSE,158,3.3,3.3,98,0.00,CLR,,0.41,WeatherDisplay:10.37,2013-05-07 02:30:00,
2013-05-06 22:35:00,64.9,64.3,29.92,SW,225,3.5,3.5,98,0.00,CLR,,0.41,WeatherDisplay:10.37,2013-05-07 02:35:00,
2013-05-06 22:40:00,64.8,64.2,29.92,West,270,3.5,3.5,98,0.00,CLR,,0.41,WeatherDisplay:10.37,2013-05-07 02:40:00,
2013-05-06 22:45:00,64.2,63.6,29.92,West,270,3.3,3.3,98,0.01,RA,,0.42,WeatherDisplay:10.37,2013-05-07 02:45:00,
2013-05-06 22:50:00,63.7,63.1,29.93,West,270,0.0,0.0,98,0.02,RA,,0.43,WeatherDisplay:10.37,2013-05-07 02:50:00,
2013-05-06 22:55:00,63.7,63.1,29.93,West,270,0.0,0.0,98,0.03,RA,,0.44,WeatherDisplay:10.37,2013-05-07 02:55:00,
2013-05-06 23:00:00,63.5,62.9,29.93,West,270,6.9,6.9,98,0.04,RA,,0.45,WeatherDisplay:10.37,2013-05-07 03:00:00,
2013-05-06 23:05:00,63.5,62.9,29.93,WSW,248,5.8,5.8,98,0.08,RA,,0.50,WeatherDisplay:10.37,2013-05-07 03:05:00,
2013-05-06 23:10:00,63.3,62.7,29.93,SSW,202,4.6,4.6,98,0.09,RA,,0.50,WeatherDisplay:10.37,2013-05-07 03:10:00,
2013-05-06 23:15:00,63.3,62.7,29.92,WSW,248,3.5,3.5,98,0.09,RA,,0.50,WeatherDisplay:10.37,2013-05-07 03:15:00,
2013-05-06 23:20:00,63.3,62.7,29.92,WSW,248,3.5,3.5,98,0.09,CLR,,0.50,WeatherDisplay:10.37,2013-05-07 03:20:00,
2013-05-06 23:25:00,63.3,62.7,29.92,WSW,248,2.3,2.3,98,0.10,RA,,0.51,WeatherDisplay:10.37,2013-05-07 03:25:00,
2013-05-06 23:30:00,63.3,62.7,29.92,West,270,2.5,2.5,98,0.10,RA,,0.51,WeatherDisplay:10.37,2013-05-07 03:30:00,
2013-05-06 23:35:00,63.1,62.5,29.92,West,270,2.5,2.5,98,0.11,RA,,0.52,WeatherDisplay:10.37,2013-05-07 03:35:00,
2013-05-06 23:40:00,63.0,62.4,29.91,West,270,0.0,0.0,98,0.11,RA,,0.52,WeatherDisplay:10.37,2013-05-07 03:40:00,
2013-05-06 23:45:00,63.0,62.4,29.91,West,270,2.5,2.5,98,0.10,CLR,,0.52,WeatherDisplay:10.37,2013-05-07 03:45:00,
2013-05-06 23:50:00,62.8,62.2,29.91,West,270,3.5,3.5,98,0.09,CLR,,0.52,WeatherDisplay:10.37,2013-05-07 03:50:00,
2013-05-06 23:55:00,62.8,62.2,29.91,West,270,3.5,3.5,98,0.08,CLR,,0.52,WeatherDisplay:10.37,2013-05-07 03:55:00,